METEOR 2-6 DEB, 29201

Orbit data source: Space-Track

METEOR 2-6 DEB, 29201 is space debris in LEO originally from a launch on Tue, 09 Sep 1980 UTC launched from the Plesetsk Missile And Space Complex (PKMTR). Debris objects in space refer to the collection of defunct objects orbiting the Earth. Examples of debris include non-operational satellites, rocket bodies, and fragments generated from explosions, collisions, or faulty payload assembly.

Loading next visibility...
Identifier
29201, 1980-073G
Orbit
LEO
Country
Flag of CISCIS
Related business
Manufacturer
Unknown
Mission
Spacecraft
Bus & Motor
Unknown
Mass
Unknown
Launch date (UTC)
1980-09-09 (46 years ago)
Launch vehicle
Unknown
Launch site
Plesetsk Missile And Space Complex (PKMTR)
Object type
Payload
Rocket body
Debris
Shape & HBR
Unknown shape, 0.050 m
Radar Cross Section
Small (<0.1 m²)

Expand to show TLE details & history
Last TLE update: 2 days ago

TLE from 2 days ago
0 METEOR 2-6 DEB
1 29201U 80073G   26265.31661412  .00018443  00000-0  14914-2 0  9998
2 29201  81.1927 125.5344 0009617  12.9728 347.1737 14.99654389676177
Epoch: 2026-09-22T07:35Z
TLE epoch observation values (Epoch: 2026-09-22T07:35:55.459Z)
Latitude
-0.00008°
Longitude
10.36947°
Altitude
564.468 km
Speed
7.583 km/s
True Right ascension
08h 22m 08s
True Declination
0° 00' 00"
Sunlit
Object was in daylight at epoch
Visualization orbit readout
Latitude
Unknown
Longitude
Unknown
Altitude
Unknown
Speed
Unknown
Apparent Right ascension
Unknown
Apparent Declination
Unknown
Sunlit
N/A
Visualization observer readout
Local Sidereal Time
10:06:23
Azimuth
Unknown
Elevation
Unknown
Doppler factor
Unknown
Orbital elements
Apogee altitude
571.698 km
Perigee altitude
558.344 km
Semi-major axis
6,943.158 km
Eccentricity
0.00096
Inclination
81.1927°
RAAN
125.5344°
Arg. of periapsis
12.9728°
True anomaly
347.14921°
Mean anomaly
347.1737°
Eccentric anomaly
347.16146°
Mean motion
3.75152 °/min
Orbital period
95.96 mins
BSTAR
0.0014914
Loading maneuver chart data...
Computing Atmospheric mass density...
Loading historical data...
Loading historical data...
Loading historical data...
Loading historical data...
Loading historical data...
Loading historical data...
Loading historical data...

Documentation

Showing up to 5 results
|